Location: Unspecified
(38.9820°N, 94.4650°W)
Time: 13:18:52
(UTC-05:00)

Resurs 1-4 Rocket - Visible Passes

Search period start: 01 October 2014 00:00
Search period end: 11 October 2014 00:00
Orbit: 801 x 814 km, 98.3° (Epoch: 30 September)

Date Brightness Start Highest point End Pass type
(mag) Time Alt. Az. Time Alt. Az. Time Alt. Az.
01 Oct 4.7 04:06:36 10° NE 04:09:51 16° E 04:13:05 10° SE visible
01 Oct 2.1 05:44:50 10° N 05:50:04 58° WNW 05:55:15 10° SSW visible
02 Oct 2.1 05:20:21 10° NNE 05:25:42 84° ESE 05:30:50 11° SSW visible
03 Oct 2.9 04:56:05 10° NNE 05:01:15 49° E 05:06:01 12° S visible
03 Oct 3.4 06:36:52 10° NNW 06:40:43 21° WNW 06:44:32 10° WSW visible
04 Oct 3.8 04:32:06 10° NE 04:36:43 29° E 04:41:12 10° SSE visible
04 Oct 2.8 06:11:49 10° N 06:16:32 33° WNW 06:21:14 10° SW visible
05 Oct 4.6 04:08:38 10° NE 04:12:05 17° E 04:15:31 10° SE visible
05 Oct 2.2 05:47:04 10° N 05:52:16 55° WNW 05:57:26 10° SSW visible
06 Oct 2.0 05:22:33 10° NNE 05:27:55 89° ESE 05:32:37 13° SSW visible
07 Oct 2.8 04:58:16 10° NNE 05:03:28 53° E 05:07:47 15° S visible
07 Oct 3.4 06:39:11 10° NNW 06:42:54 20° WNW 06:46:35 10° WSW visible
08 Oct 3.7 04:34:15 10° NE 04:38:57 31° E 04:42:57 13° SSE visible
08 Oct 2.8 06:14:05 10° N 06:18:44 31° WNW 06:23:21 10° SW visible
09 Oct 4.5 04:10:42 10° NE 04:14:20 18° E 04:17:56 10° SE visible
09 Oct 2.2 05:49:19 10° N 05:54:28 52° WNW 05:59:11 12° SW visible
10 Oct 5.1 03:49:14 10° E 03:49:37 10° E 03:50:01 10° E visible
10 Oct 2.0 05:24:46 10° NNE 05:30:07 87° WNW 05:34:20 17° SSW visible
